Epoch 2015 Aug. 6.0 TT = JDT 2457240.5
T 2015 Aug. 7.80510 TT MPCW
q 2.8224273 (2000.0) P Q
n 0.08750112 Peri. 306.88909 +0.84242503 -0.35800108
a 5.0248946 Node 77.32904 +0.52202019 +0.72741475
e 0.4383111 Incl. 24.37688 -0.13347283 +0.58540842
P 11.3
From 31 observations 2015 Nov. 6-Dec. 10, mean residual 0".5.